Time,TemperatureF,DewpointF,PressureIn,WindDirection,WindDirectionDegrees,WindSpeedMPH,WindSpeedGustMPH,Humidity,HourlyPrecipIn,Conditions,Clouds,dailyrainin,SoftwareType,DateUTC
2013-05-28 00:03:00,79.0,74.0,30.11,East,89,2.0,6.0,84,0.00,,,0.00,,2013-05-28 04:03:00,
2013-05-28 00:13:00,79.0,74.0,30.11,East,89,2.0,6.0,84,0.00,,,0.00,,2013-05-28 04:13:00,
2013-05-28 00:22:00,79.0,73.0,30.12,ESE,114,5.0,15.0,83,0.00,,,0.00,,2013-05-28 04:22:00,
2013-05-28 00:33:00,76.0,72.0,30.12,ESE,106,3.0,11.0,86,0.00,,,0.00,,2013-05-28 04:33:00,
2013-05-28 00:43:00,76.0,72.0,30.12,ESE,106,3.0,11.0,86,0.00,,,0.00,,2013-05-28 04:43:00,
2013-05-28 00:53:00,74.0,71.0,30.12,East,82,3.0,8.0,90,0.03,,,0.03,,2013-05-28 04:53:00,
2013-05-28 01:02:00,74.0,72.0,30.12,East,89,0.0,7.0,92,0.03,,,0.03,,2013-05-28 05:02:00,
2013-05-28 01:12:00,74.0,72.0,30.12,East,89,0.0,7.0,92,0.03,,,0.03,,2013-05-28 05:12:00,
2013-05-28 01:22:00,74.0,72.0,30.12,NNE,30,0.0,1.0,93,0.03,,,0.03,,2013-05-28 05:22:00,
2013-05-28 01:33:00,74.0,71.0,30.12,ENE,68,7.0,17.0,91,0.26,,,0.26,,2013-05-28 05:33:00,
2013-05-28 01:42:00,74.0,71.0,30.12,ENE,68,7.0,17.0,91,0.26,,,0.26,,2013-05-28 05:42:00,
2013-05-28 01:52:00,74.0,72.0,30.11,East,93,0.0,6.0,94,0.37,,,0.40,,2013-05-28 05:52:00,
2013-05-28 02:02:00,74.0,72.0,30.10,ESE,109,1.0,4.0,94,0.37,,,0.40,,2013-05-28 06:02:00,
2013-05-28 02:12:00,74.0,72.0,30.10,ESE,109,1.0,4.0,94,0.37,,,0.40,,2013-05-28 06:12:00,
2013-05-28 02:22:00,74.0,72.0,30.10,ESE,108,0.0,0.0,94,0.37,,,0.40,,2013-05-28 06:22:00,
2013-05-28 02:32:00,74.0,72.0,30.10,East,85,3.0,6.0,94,0.11,,,0.40,,2013-05-28 06:32:00,
2013-05-28 02:42:00,74.0,72.0,30.10,East,85,3.0,6.0,94,0.11,,,0.40,,2013-05-28 06:42:00,
2013-05-28 02:52:00,75.0,73.0,30.09,East,86,3.0,7.0,93,0.02,,,0.41,,2013-05-28 06:52:00,
2013-05-28 03:01:00,75.0,73.0,30.08,East,91,0.0,5.0,93,0.01,,,0.41,,2013-05-28 07:01:00,
2013-05-28 03:11:00,75.0,73.0,30.08,East,91,0.0,5.0,93,0.01,,,0.41,,2013-05-28 07:11:00,
2013-05-28 03:21:00,74.0,72.0,30.07,ENE,58,0.0,1.0,94,0.01,,,0.41,,2013-05-28 07:21:00,
2013-05-28 03:32:00,75.0,73.0,30.07,NE,56,0.0,2.0,95,0.01,,,0.41,,2013-05-28 07:32:00,
2013-05-28 03:42:00,75.0,73.0,30.07,NE,56,0.0,2.0,95,0.01,,,0.41,,2013-05-28 07:42:00,
2013-05-28 03:52:00,76.0,74.0,30.06,ENE,76,2.0,13.0,95,0.00,,,0.41,,2013-05-28 07:52:00,
2013-05-28 04:02:00,76.0,74.0,30.06,ESE,109,1.0,5.0,94,0.00,,,0.41,,2013-05-28 08:02:00,
2013-05-28 04:12:00,76.0,74.0,30.06,ESE,109,1.0,5.0,94,0.00,,,0.41,,2013-05-28 08:12:00,
2013-05-28 04:22:00,76.0,74.0,30.06,NE,51,2.0,7.0,92,0.00,,,0.41,,2013-05-28 08:22:00,
2013-05-28 04:32:00,76.0,74.0,30.06,East,91,1.0,12.0,92,0.02,,,0.43,,2013-05-28 08:32:00,
2013-05-28 04:42:00,76.0,74.0,30.06,East,91,1.0,12.0,92,0.02,,,0.43,,2013-05-28 08:42:00,
2013-05-28 04:52:00,76.0,74.0,30.05,East,86,1.0,6.0,93,0.02,,,0.43,,2013-05-28 08:52:00,
2013-05-28 05:01:00,76.0,74.0,30.06,East,87,3.0,8.0,93,0.09,,,0.50,,2013-05-28 09:01:00,
2013-05-28 05:11:00,76.0,74.0,30.06,East,87,3.0,8.0,93,0.09,,,0.50,,2013-05-28 09:11:00,
2013-05-28 05:21:00,76.0,74.0,30.06,ENE,65,3.0,8.0,93,0.09,,,0.50,,2013-05-28 09:21:00,
2013-05-28 05:33:00,76.0,74.0,30.05,ESE,105,2.0,7.0,92,0.08,,,0.51,,2013-05-28 09:33:00,
2013-05-28 05:43:00,76.0,74.0,30.05,ESE,105,2.0,7.0,92,0.08,,,0.51,,2013-05-28 09:43:00,
2013-05-28 05:53:00,77.0,74.0,30.05,North,8,3.0,10.0,91,0.08,,,0.51,,2013-05-28 09:53:00,
2013-05-28 06:03:00,77.0,74.0,30.06,SSE,153,4.0,7.0,90,0.01,,,0.51,,2013-05-28 10:03:00,
2013-05-28 06:12:00,77.0,74.0,30.06,SSE,153,4.0,7.0,90,0.01,,,0.51,,2013-05-28 10:12:00,
2013-05-28 06:23:00,77.0,74.0,30.06,ESE,106,2.0,11.0,89,0.01,,,0.51,,2013-05-28 10:23:00,
2013-05-28 06:32:00,78.0,74.0,30.05,East,101,2.0,12.0,88,0.00,,,0.51,,2013-05-28 10:32:00,
2013-05-28 06:42:00,78.0,74.0,30.05,East,101,2.0,12.0,88,0.00,,,0.51,,2013-05-28 10:42:00,
2013-05-28 06:53:00,78.0,74.0,30.06,ENE,61,1.0,8.0,88,0.00,,,0.51,,2013-05-28 10:53:00,
2013-05-28 07:02:00,78.0,74.0,30.06,East,94,4.0,11.0,87,0.00,,,0.51,,2013-05-28 11:02:00,
2013-05-28 07:11:00,78.0,74.0,30.06,East,94,4.0,11.0,87,0.00,,,0.51,,2013-05-28 11:11:00,
2013-05-28 07:22:00,78.0,74.0,30.06,ENE,63,3.0,8.0,87,0.00,,,0.51,,2013-05-28 11:22:00,
2013-05-28 07:32:00,78.0,73.0,30.06,East,87,5.0,13.0,85,0.00,,,0.51,,2013-05-28 11:32:00,
2013-05-28 07:42:00,78.0,73.0,30.06,East,87,5.0,13.0,85,0.00,,,0.51,,2013-05-28 11:42:00,
2013-05-28 07:52:00,78.0,74.0,30.07,East,101,1.0,12.0,87,0.00,,,0.51,,2013-05-28 11:52:00,
2013-05-28 08:01:00,78.0,73.0,30.08,ESE,112,3.0,10.0,86,0.00,,,0.51,,2013-05-28 12:01:00,
2013-05-28 08:11:00,78.0,73.0,30.08,ESE,112,3.0,10.0,86,0.00,,,0.51,,2013-05-28 12:11:00,
2013-05-28 08:21:00,78.0,73.0,30.09,East,86,3.0,8.0,85,0.00,,,0.51,,2013-05-28 12:21:00,
2013-05-28 08:32:00,78.0,73.0,30.09,NNW,328,3.0,10.0,84,0.00,,,0.51,,2013-05-28 12:32:00,
2013-05-28 08:42:00,78.0,73.0,30.09,NNW,328,3.0,10.0,84,0.00,,,0.51,,2013-05-28 12:42:00,
2013-05-28 08:52:00,78.0,73.0,30.09,ENE,77,4.0,8.0,84,0.00,,,0.51,,2013-05-28 12:52:00,
2013-05-28 09:01:00,78.0,73.0,30.10,East,86,3.0,8.0,85,0.00,,,0.51,,2013-05-28 13:01:00,
2013-05-28 09:11:00,78.0,73.0,30.10,East,86,3.0,8.0,85,0.00,,,0.51,,2013-05-28 13:11:00,
2013-05-28 09:21:00,78.0,73.0,30.11,ESE,111,3.0,11.0,85,0.00,,,0.51,,2013-05-28 13:21:00,
2013-05-28 09:32:00,78.0,73.0,30.11,SE,125,5.0,8.0,84,0.00,,,0.51,,2013-05-28 13:32:00,
2013-05-28 09:42:00,78.0,73.0,30.11,SE,125,5.0,8.0,84,0.00,,,0.51,,2013-05-28 13:42:00,
2013-05-28 09:52:00,78.0,73.0,30.11,ENE,77,3.0,9.0,85,0.00,,,0.51,,2013-05-28 13:52:00,
2013-05-28 10:02:00,78.0,73.0,30.11,East,92,4.0,8.0,84,0.00,,,0.51,,2013-05-28 14:02:00,
2013-05-28 10:12:00,78.0,73.0,30.11,East,92,4.0,8.0,84,0.00,,,0.51,,2013-05-28 14:12:00,
2013-05-28 10:21:00,78.0,73.0,30.11,East,92,4.0,8.0,84,0.00,,,0.51,,2013-05-28 14:21:00,
2013-05-28 10:32:00,79.0,73.0,30.11,ESE,107,3.0,10.0,82,0.00,,,0.51,,2013-05-28 14:32:00,
2013-05-28 10:42:00,79.0,73.0,30.11,ESE,107,3.0,10.0,82,0.00,,,0.51,,2013-05-28 14:42:00,
2013-05-28 10:52:00,79.0,72.0,30.10,East,95,5.0,13.0,79,0.00,,,0.51,,2013-05-28 14:52:00,
2013-05-28 11:01:00,79.0,72.0,30.10,East,95,5.0,13.0,79,0.00,,,0.51,,2013-05-28 15:01:00,
2013-05-28 11:11:00,79.0,72.0,30.10,East,95,5.0,13.0,79,0.00,,,0.51,,2013-05-28 15:11:00,
2013-05-28 11:21:00,80.0,74.0,30.10,ESE,108,4.0,12.0,81,0.00,,,0.51,,2013-05-28 15:21:00,
2013-05-28 11:33:00,80.0,73.0,30.10,East,89,4.0,9.0,79,0.00,,,0.51,,2013-05-28 15:33:00,
2013-05-28 11:43:00,80.0,73.0,30.10,East,89,4.0,9.0,79,0.00,,,0.51,,2013-05-28 15:43:00,
2013-05-28 11:53:00,80.0,73.0,30.10,ESE,112,3.0,12.0,80,0.00,,,0.51,,2013-05-28 15:53:00,
2013-05-28 12:03:00,80.0,73.0,30.10,ESE,113,4.0,12.0,80,0.00,,,0.51,,2013-05-28 16:03:00,
2013-05-28 12:13:00,80.0,73.0,30.10,ESE,113,4.0,12.0,80,0.00,,,0.51,,2013-05-28 16:13:00,
2013-05-28 12:23:00,80.0,74.0,30.11,East,101,3.0,14.0,81,0.00,,,0.51,,2013-05-28 16:23:00,
2013-05-28 12:33:00,81.0,74.0,30.10,East,86,4.0,11.0,79,0.00,,,0.51,,2013-05-28 16:33:00,
2013-05-28 12:42:00,81.0,74.0,30.10,East,86,4.0,11.0,79,0.00,,,0.51,,2013-05-28 16:42:00,
2013-05-28 12:52:00,82.0,73.0,30.10,East,98,4.0,11.0,75,0.00,,,0.51,,2013-05-28 16:52:00,
2013-05-28 13:02:00,82.0,73.0,30.09,ESE,105,6.0,14.0,75,0.00,,,0.51,,2013-05-28 17:02:00,
2013-05-28 13:12:00,82.0,73.0,30.09,ESE,105,6.0,14.0,75,0.00,,,0.51,,2013-05-28 17:12:00,
2013-05-28 13:22:00,82.0,73.0,30.09,ESE,105,6.0,14.0,75,0.00,,,0.51,,2013-05-28 17:22:00,
2013-05-28 13:32:00,82.0,73.0,30.10,ENE,77,5.0,11.0,75,0.00,,,0.51,,2013-05-28 17:32:00,
2013-05-28 13:42:00,83.0,73.0,30.10,East,98,4.0,10.0,73,0.00,,,0.51,,2013-05-28 17:42:00,
2013-05-28 13:52:00,83.0,73.0,30.10,East,98,4.0,10.0,73,0.00,,,0.51,,2013-05-28 17:52:00,
2013-05-28 14:01:00,82.0,73.0,30.11,ENE,65,3.0,18.0,75,0.00,,,0.51,,2013-05-28 18:01:00,
2013-05-28 14:11:00,82.0,73.0,30.11,ENE,65,3.0,18.0,75,0.00,,,0.51,,2013-05-28 18:11:00,
2013-05-28 14:22:00,82.0,73.0,30.10,East,86,4.0,12.0,74,0.00,,,0.51,,2013-05-28 18:22:00,
2013-05-28 14:32:00,83.0,73.0,30.09,ESE,109,4.0,11.0,73,0.00,,,0.51,,2013-05-28 18:32:00,
2013-05-28 14:42:00,83.0,73.0,30.09,East,94,5.0,11.0,73,0.00,,,0.51,,2013-05-28 18:42:00,
2013-05-28 14:52:00,83.0,73.0,30.09,East,94,5.0,11.0,73,0.00,,,0.51,,2013-05-28 18:52:00,
2013-05-28 15:01:00,84.0,74.0,30.09,ENE,75,6.0,12.0,72,0.00,,,0.51,,2013-05-28 19:01:00,
2013-05-28 15:11:00,84.0,74.0,30.09,ENE,75,6.0,12.0,72,0.00,,,0.51,,2013-05-28 19:11:00,
2013-05-28 15:21:00,84.0,73.0,30.08,ESE,103,4.0,11.0,70,0.00,,,0.51,,2013-05-28 19:21:00,
2013-05-28 15:32:00,84.0,73.0,30.08,NE,53,6.0,11.0,70,0.00,,,0.51,,2013-05-28 19:32:00,
2013-05-28 15:42:00,84.0,73.0,30.08,NE,53,6.0,11.0,70,0.00,,,0.51,,2013-05-28 19:42:00,
2013-05-28 15:52:00,84.0,74.0,30.07,East,93,5.0,12.0,72,0.00,,,0.51,,2013-05-28 19:52:00,
2013-05-28 16:02:00,84.0,74.0,30.07,ESE,109,5.0,12.0,72,0.00,,,0.51,,2013-05-28 20:02:00,
2013-05-28 16:11:00,84.0,74.0,30.07,ESE,109,5.0,12.0,72,0.00,,,0.51,,2013-05-28 20:11:00,
2013-05-28 16:22:00,82.0,72.0,30.07,ESE,103,4.0,13.0,72,0.00,,,0.51,,2013-05-28 20:22:00,
2013-05-28 16:32:00,82.0,72.0,30.07,ENE,70,4.0,11.0,73,0.00,,,0.51,,2013-05-28 20:32:00,
2013-05-28 16:42:00,82.0,72.0,30.07,ENE,70,4.0,11.0,73,0.00,,,0.51,,2013-05-28 20:42:00,
2013-05-28 16:52:00,82.0,72.0,30.07,ENE,72,5.0,11.0,72,0.00,,,0.51,,2013-05-28 20:52:00,
2013-05-28 17:02:00,82.0,72.0,30.06,ESE,108,3.0,6.0,72,0.00,,,0.51,,2013-05-28 21:02:00,
2013-05-28 17:11:00,82.0,71.0,30.07,ESE,104,3.0,10.0,70,0.00,,,0.51,,2013-05-28 21:11:00,
2013-05-28 17:21:00,82.0,71.0,30.07,ESE,104,3.0,10.0,70,0.00,,,0.51,,2013-05-28 21:21:00,
2013-05-28 17:33:00,82.0,71.0,30.07,ESE,114,3.0,12.0,70,0.00,,,0.51,,2013-05-28 21:33:00,
2013-05-28 17:43:00,82.0,72.0,30.07,ENE,62,4.0,8.0,73,0.00,,,0.51,,2013-05-28 21:43:00,
2013-05-28 17:53:00,82.0,72.0,30.07,ENE,62,4.0,8.0,73,0.00,,,0.51,,2013-05-28 21:53:00,
2013-05-28 18:02:00,81.0,72.0,30.07,ESE,114,3.0,10.0,74,0.00,,,0.51,,2013-05-28 22:02:00,
2013-05-28 18:13:00,81.0,72.0,30.06,NE,56,4.0,9.0,73,0.00,,,0.51,,2013-05-28 22:13:00,
2013-05-28 18:22:00,81.0,72.0,30.06,NE,56,4.0,9.0,73,0.00,,,0.51,,2013-05-28 22:22:00,
2013-05-28 18:33:00,81.0,73.0,30.06,ESE,105,2.0,7.0,76,0.00,,,0.51,,2013-05-28 22:33:00,
2013-05-28 18:42:00,80.0,72.0,30.06,NE,47,2.0,6.0,78,0.00,,,0.51,,2013-05-28 22:42:00,
2013-05-28 18:52:00,80.0,72.0,30.06,NE,47,2.0,6.0,78,0.00,,,0.51,,2013-05-28 22:52:00,
2013-05-28 19:02:00,80.0,72.0,30.06,East,93,2.0,9.0,77,0.00,,,0.51,,2013-05-28 23:02:00,
2013-05-28 19:11:00,80.0,73.0,30.06,ESE,118,2.0,6.0,79,0.00,,,0.51,,2013-05-28 23:11:00,
2013-05-28 19:22:00,80.0,73.0,30.06,ESE,118,2.0,6.0,79,0.00,,,0.51,,2013-05-28 23:22:00,
2013-05-28 19:32:00,79.0,72.0,30.07,East,101,3.0,6.0,80,0.00,,,0.51,,2013-05-28 23:32:00,
2013-05-28 19:42:00,79.0,72.0,30.07,East,101,3.0,6.0,80,0.00,,,0.51,,2013-05-28 23:42:00,
2013-05-28 19:52:00,79.0,72.0,30.07,East,101,3.0,6.0,80,0.00,,,0.51,,2013-05-28 23:52:00,
2013-05-28 20:02:00,79.0,72.0,30.07,East,91,2.0,8.0,79,0.00,,,0.51,,2013-05-29 00:02:00,
2013-05-28 20:11:00,79.0,72.0,30.07,East,91,2.0,8.0,79,0.00,,,0.51,,2013-05-29 00:11:00,
2013-05-28 20:22:00,79.0,73.0,30.08,ENE,67,1.0,7.0,81,0.00,,,0.51,,2013-05-29 00:22:00,
2013-05-28 20:32:00,79.0,72.0,30.08,ENE,68,3.0,9.0,80,0.00,,,0.51,,2013-05-29 00:32:00,
2013-05-28 20:42:00,79.0,72.0,30.08,ENE,68,3.0,9.0,80,0.00,,,0.51,,2013-05-29 00:42:00,
2013-05-28 20:52:00,79.0,72.0,30.08,ESE,114,4.0,10.0,79,0.00,,,0.51,,2013-05-29 00:52:00,
2013-05-28 21:01:00,79.0,72.0,30.08,East,101,3.0,9.0,79,0.00,,,0.51,,2013-05-29 01:01:00,
2013-05-28 21:11:00,79.0,72.0,30.09,East,101,2.0,6.0,80,0.00,,,0.51,,2013-05-29 01:11:00,
2013-05-28 21:22:00,79.0,72.0,30.09,East,101,2.0,6.0,80,0.00,,,0.51,,2013-05-29 01:22:00,
2013-05-28 21:32:00,79.0,73.0,30.09,ENE,77,0.0,6.0,81,0.00,,,0.51,,2013-05-29 01:32:00,
2013-05-28 21:42:00,79.0,73.0,30.09,ENE,77,0.0,6.0,81,0.00,,,0.51,,2013-05-29 01:42:00,
2013-05-28 21:52:00,79.0,72.0,30.09,East,98,3.0,9.0,80,0.00,,,0.51,,2013-05-29 01:52:00,
2013-05-28 22:02:00,79.0,73.0,30.09,ESE,114,2.0,7.0,82,0.00,,,0.51,,2013-05-29 02:02:00,
2013-05-28 22:12:00,79.0,72.0,30.09,East,96,3.0,9.0,80,0.00,,,0.51,,2013-05-29 02:12:00,
2013-05-28 22:21:00,79.0,72.0,30.09,East,96,3.0,9.0,80,0.00,,,0.51,,2013-05-29 02:21:00,
2013-05-28 22:32:00,79.0,72.0,30.09,East,81,1.0,6.0,80,0.00,,,0.51,,2013-05-29 02:32:00,
2013-05-28 22:42:00,78.0,72.0,30.09,East,86,2.0,6.0,81,0.00,,,0.51,,2013-05-29 02:42:00,
2013-05-28 22:52:00,78.0,72.0,30.09,East,86,2.0,6.0,81,0.00,,,0.51,,2013-05-29 02:52:00,
2013-05-28 23:02:00,78.0,72.0,30.08,SE,126,2.0,7.0,81,0.00,,,0.51,,2013-05-29 03:02:00,
2013-05-28 23:12:00,78.0,72.0,30.08,SE,126,2.0,7.0,81,0.00,,,0.51,,2013-05-29 03:12:00,
2013-05-28 23:21:00,78.0,72.0,30.08,East,101,4.0,10.0,81,0.00,,,0.51,,2013-05-29 03:21:00,
2013-05-28 23:33:00,78.0,71.0,30.08,East,82,1.0,6.0,80,0.00,,,0.51,,2013-05-29 03:33:00,
2013-05-28 23:43:00,78.0,71.0,30.08,East,82,1.0,6.0,80,0.00,,,0.51,,2013-05-29 03:43:00,
2013-05-28 23:53:00,78.0,71.0,30.08,East,80,1.0,8.0,78,0.00,,,0.51,,2013-05-29 03:53:00,